Home > Weather > Stamford > Past weeks

Flag for U.S.A. Weather for the Past 2 Weeks in Stamford, Connecticut, U.S.A.

Now
37 °F

Partly sunny.


Feels Like: 31 °F
Forecast: 28 / 39 °F
Wind: 8 mph from Northwest

Location: Westchester County Airport

Current Time: Feb 10, 2016 at 2:09:46 PM

Latest Report: Feb 10, 2016 at 12:56 PM


Visibility: 10 mi

Pressure: 29.58 "Hg

Humidity: 54%

Dew point: 22 °F

Location of StamfordLocation

Historic Weather in Stamford — Graph

°F

Stamford Temperature Yesterday

Maximum temperature yesterday: 31 °F (at 12:56 PM)
Minimum temperature yesterday: 23 °F (at 2:56 AM)
Average temperature yesterday: 27 °F

High & Low Weather Summary for the Past Weeks

 TemperatureHumidityPressure
High57 °F (Feb 1, 11:56 AM)97% (Feb 3, 6:56 PM)30.42 "Hg (Feb 3, 6:56 PM)
Low21 °F (Jan 28, 5:56 AM)30% (Jan 31, 2:56 PM)29.43 "Hg (Jan 29, 12:58 PM)
Average37 °F65%29.95 "Hg
* Reported Jan 26 12:56 PM — Feb 10 12:56 PM, Stamford, Weather by CustomWeather, © 2016

Note: Actual official high and low records may vary slightly from our data, if they occured in-between our weather recording intervals... More about our weather records

Advertising

Stamford Weather History for the Previous 24 Hours

 ConditionsComfort  
Time TempWeatherWind HumidityBarometerVisibility
12:56 PM
Wed, Feb 10
37 °FPartly sunny.8 mph54%29.58 "Hg10 mi
11:56 AM37 °FBroken clouds.13 mph54%29.59 "Hg10 mi
10:56 AM35 °FScattered clouds.10 mph67%29.60 "Hg7 mi
9:56 AM33 °FFog.9 mph85%29.61 "Hg5 mi
8:56 AM32 °FIce fog.3 mph88%29.61 "Hg1 mi
7:56 AM31 °FLight snow. Ice fog.No wind89%29.60 "Hg1 mi
6:56 AM30 °FIce fog.No wind96%29.59 "Hg1 mi
5:56 AM30 °FIce fog.No wind89%29.59 "Hg1 mi
4:56 AM29 °FIce fog.No wind93%29.59 "Hg2 mi
3:56 AM29 °FLight snow. Ice fog.No wind89%29.58 "Hg2 mi
2:56 AM28 °FLight snow. Ice fog.No wind89%29.58 "Hg1 mi
1:56 AM28 °FLight snow. Ice fog.No wind85%29.59 "Hg6 mi
12:56 AM28 °FPartly cloudy.No wind81%29.59 "Hg10 mi
11:56 PM
Tue, Feb 9
28 °FPassing clouds.No wind78%29.60 "Hg10 mi
10:56 PM26 °FOvercast.No wind88%29.60 "Hg10 mi
9:56 PM28 °FOvercast.No wind81%29.62 "Hg9 mi
8:56 PM29 °FPassing clouds.No wind79%29.63 "Hg10 mi
7:56 PM28 °FPassing clouds.3 mph81%29.62 "Hg10 mi
6:56 PM29 °FPassing clouds.No wind75%29.62 "Hg10 mi
5:56 PM29 °FPassing clouds.No wind72%29.60 "Hg10 mi
4:56 PM29 °FScattered clouds.3 mph72%29.59 "Hg10 mi
3:56 PM31 °FPartly sunny.No wind69%29.58 "Hg10 mi
2:56 PM30 °FPartly sunny.3 mph72%29.57 "Hg10 mi
Weather by CustomWeather, © 2016

See weather overviewHow to use our weather pages